South Lake Tahoe, CA

11:56 PM PDT on May 25, 2017 (GMT -0700)
Lake Tahoe

Weather History for KTVL - August, 2013

Change the Weather History Date:

Thursday, August 22, 2013

  Actual Average Record
Temperature  
Mean Temperature 62 °F 60 °F  
Max Temperature 77 °F 80 °F 90 °F (1988)
Min Temperature 46 °F 40 °F 27 °F (1985)
Degree Days  
Heating Degree Days 3 6  
Month to date heating degree days 92 100  
Since 1 June heating degree days 323 548  
Since 1 July heating degree days 129 238  
Cooling Degree Days 0 0  
Month to date cooling degree days 9 7  
Year to date cooling degree days 98 26  
Since 1 June cooling degree days 98 26  
Growing Degree Days 12 (Base 50)    
Moisture  
Dew Point 38 °F    
Average Humidity 54    
Maximum Humidity 89    
Minimum Humidity 19    
Precipitation  
Precipitation 0.00 in - 0.21 in (1983)
Month to date precipitation 0.51  
Year to date precipitation 6.44  
Sea Level Pressure  
Sea Level Pressure 30.03 in    
Wind  
Wind Speed 5 mph (SSW)    
Max Wind Speed 22 mph    
Max Gust Speed 31 mph    
Visibility 6 miles    
Events      
T = Trace of Precipitation, MM = Missing Value Source: NWS Daily Summary

Daily Weather History Graph

Daily Weather History Graph

Search for Another Location

Airport or City:

Trip Planner

Search our weather history database for the weather conditions in past years. The results will help you decide how hot, cold, wet, or windy it might be!

Date:

Astronomy

Aug. 22, 2013 Rise Set
Actual Time 6:20 AM PDT 7:44 PM PDT
Civil Twilight 5:52 AM PDT 8:12 PM PDT
Nautical Twilight 5:18 AM PDT 8:45 PM PDT
Astronomical Twilight 4:43 AM PDT 9:20 PM PDT
Moon 8:33 PM PDT (8/22) 8:12 AM PDT (8/22)
Length of Visible Light 14h 20m
Length of Day
13h 24m
Waning Gibbous, 96% of the Moon is Illuminated
Aug 22
Waning Gibbous
Aug 28
Last Quarter
Sep 5
New
Sep 12
First Quarter
Sep 19
Full

Hourly Weather History & Observations

Time (PDT) Temp. Dew Point Humidity Pressure Visibility Wind Dir Wind Speed Gust Speed Precip Events Conditions
12:53 AM 52.0 °F 48.0 °F 86% 30.07 in 6.0 mi South 3.5 mph - N/A   Partly Cloudy
1:53 AM 51.1 °F 46.9 °F 86% 30.06 in 8.0 mi Calm Calm - N/A   Clear
2:53 AM 50.0 °F 46.0 °F 86% 30.06 in 8.0 mi Calm Calm - N/A   Scattered Clouds
3:53 AM 48.9 °F 45.0 °F 86% 30.05 in 9.0 mi Calm Calm - N/A   Scattered Clouds
4:53 AM 48.0 °F 44.1 °F 86% 30.05 in 7.0 mi South 3.5 mph - N/A   Partly Cloudy
5:53 AM 46.9 °F 43.0 °F 86% 30.06 in 8.0 mi Calm Calm - N/A   Clear
6:53 AM 46.9 °F 42.1 °F 83% 30.06 in 7.0 mi SSW 4.6 mph - N/A   Clear
7:53 AM 51.1 °F 46.9 °F 86% 30.06 in 10.0 mi Calm Calm - N/A   Clear
8:53 AM 63.0 °F 50.0 °F 63% 30.01 in 10.0 mi NNE 4.6 mph - N/A   Clear
9:53 AM 72.0 °F 37.9 °F 29% 29.98 in 10.0 mi SSW 10.4 mph 19.6 mph N/A   Clear
10:53 AM 73.0 °F 33.1 °F 23% 29.99 in 4.0 mi SSW 16.1 mph 24.2 mph N/A   Haze
11:42 AM 75.2 °F 28.4 °F 18% 30.17 in 2.5 mi SSW 19.6 mph 29.9 mph N/A   Haze
11:53 AM 75.0 °F 30.0 °F 19% 29.98 in 1.5 mi South 16.1 mph 25.3 mph N/A   Haze
12:53 PM 75.0 °F 30.9 °F 20% 29.99 in 1.2 mi South 18.4 mph 25.3 mph N/A   Haze
1:46 PM 75.2 °F 35.6 °F 24% 30.15 in 2.0 mi SSW 8.1 mph - N/A   Haze
1:53 PM 75.0 °F 35.1 °F 23% 29.98 in 2.0 mi SSW 6.9 mph 23.0 mph N/A   Haze
2:53 PM 75.9 °F 34.0 °F 22% 29.97 in 2.5 mi Variable 5.8 mph 19.6 mph N/A   Haze
3:04 PM 75.2 °F 33.8 °F 22% 30.14 in 3.0 mi SW 10.4 mph 21.9 mph N/A   Haze
3:21 PM 75.2 °F 33.8 °F 22% 30.13 in 4.0 mi SSW 9.2 mph 17.3 mph N/A   Haze
3:53 PM 77.0 °F 33.1 °F 20% 29.95 in 4.0 mi SSW 10.4 mph 25.3 mph N/A   Haze
4:53 PM 73.9 °F 33.1 °F 22% 29.96 in 4.0 mi SSW 11.5 mph - N/A   Haze
5:14 PM 73.4 °F 33.8 °F 23% 30.12 in 5.0 mi SW 8.1 mph - N/A   Haze
5:53 PM 73.0 °F 32.0 °F 22% 29.96 in 5.0 mi SW 9.2 mph 17.3 mph N/A   Haze
6:53 PM 70.0 °F 34.0 °F 27% 29.96 in 6.0 mi SSW 3.5 mph - N/A   Haze
7:53 PM 64.0 °F 39.0 °F 40% 29.98 in 6.0 mi Calm Calm - N/A   Haze
8:53 PM 59.0 °F 39.9 °F 49% 29.98 in 10.0 mi Calm Calm - N/A   Overcast
9:53 PM 57.0 °F 41.0 °F 55% 29.97 in 10.0 mi Calm Calm - N/A   Overcast
10:53 PM 54.0 °F 41.0 °F 62% 29.98 in 10.0 mi Calm Calm - N/A   Overcast
11:53 PM 52.0 °F 39.9 °F 63% 29.98 in 8.0 mi South 4.6 mph - N/A   Overcast